TimeEST,TemperatureF,Dew PointF,Humidity,Sea Level PressureIn,VisibilityMPH,Wind Direction,Wind SpeedMPH,Gust SpeedMPH,PrecipitationIn,Events,Conditions,WindDirDegrees,DateUTC
12:15 AM,35.1,30.6,84,29.69,7.0,SW,4.6,-,N/A,,Mostly Cloudy,230,2013-02-14 05:15:00
12:34 AM,35.1,30.2,82,29.69,7.0,SW,4.6,-,N/A,,Mostly Cloudy,230,2013-02-14 05:34:00
12:55 AM,35.1,30.2,82,29.69,10.0,WSW,4.6,-,N/A,,Scattered Clouds,250,2013-02-14 05:55:00
1:15 AM,35.1,30.6,84,29.69,7.0,WSW,4.6,-,N/A,,Scattered Clouds,240,2013-02-14 06:15:00
1:34 AM,35.1,30.7,84,29.69,7.0,SSW,4.6,-,N/A,,Clear,210,2013-02-14 06:34:00
1:55 AM,35.1,30.9,85,29.68,7.0,Calm,Calm,-,N/A,,Scattered Clouds,0,2013-02-14 06:55:00
2:15 AM,35.1,30.9,85,29.68,7.0,SW,4.6,-,N/A,,Mostly Cloudy,230,2013-02-14 07:15:00
2:34 AM,35.1,30.9,85,29.68,7.0,SW,4.6,-,N/A,,Mostly Cloudy,230,2013-02-14 07:34:00
2:55 AM,35.1,30.9,85,29.67,7.0,SW,3.5,-,N/A,,Overcast,220,2013-02-14 07:55:00
3:15 AM,35.1,30.9,85,29.67,7.0,SSW,4.6,-,N/A,,Overcast,210,2013-02-14 08:15:00
3:34 AM,35.1,30.7,84,29.67,7.0,SSW,5.8,-,N/A,,Overcast,210,2013-02-14 08:34:00
3:55 AM,35.1,30.7,84,29.66,7.0,SSW,4.6,-,N/A,,Overcast,210,2013-02-14 08:55:00
4:15 AM,35.1,30.7,84,29.66,7.0,SSW,4.6,-,N/A,,Light Drizzle,200,2013-02-14 09:15:00
4:34 AM,35.1,30.9,85,29.65,7.0,South,3.5,-,N/A,,Overcast,170,2013-02-14 09:34:00
4:55 AM,35.1,31.1,85,29.64,7.0,South,4.6,-,N/A,,Overcast,170,2013-02-14 09:55:00
5:15 AM,35.1,31.1,85,29.64,7.0,South,5.8,-,N/A,,Overcast,170,2013-02-14 10:15:00
5:35 AM,35.1,31.1,85,29.64,7.0,SSE,3.5,-,N/A,,Overcast,160,2013-02-14 10:35:00
5:55 AM,35.1,31.1,85,29.64,5.0,South,5.8,-,N/A,Snow,Light Snow,170,2013-02-14 10:55:00
6:15 AM,35.1,31.8,88,29.63,2.0,South,5.8,-,N/A,Snow,Light Snow,170,2013-02-14 11:15:00
6:35 AM,35.1,32.0,89,29.62,3.0,SSE,5.8,-,N/A,Snow,Light Snow,160,2013-02-14 11:35:00
7:14 AM,35.1,32.0,89,29.61,1.5,SSE,3.5,-,N/A,Snow,Light Snow,150,2013-02-14 12:14:00
7:35 AM,35.1,32.0,89,29.61,1.8,SE,4.6,-,N/A,Snow,Light Snow,140,2013-02-14 12:35:00
7:54 AM,35.1,32.2,89,29.60,2.5,SE,4.6,-,N/A,Snow,Light Snow,140,2013-02-14 12:54:00
8:15 AM,35.1,32.2,89,29.60,2.0,SE,5.8,-,0.01,Snow,Light Snow,140,2013-02-14 13:15:00
8:35 AM,35.1,32.2,89,29.59,2.5,SSE,4.6,-,0.02,,Overcast,150,2013-02-14 13:35:00
8:54 AM,35.1,32.0,89,29.59,3.0,SE,6.9,-,0.02,,Overcast,140,2013-02-14 13:54:00
9:15 AM,35.1,32.0,89,29.59,3.0,SSE,5.8,-,N/A,,Overcast,160,2013-02-14 14:15:00
9:35 AM,35.1,32.0,89,29.58,4.0,SSE,6.9,-,N/A,,Overcast,150,2013-02-14 14:35:00
9:54 AM,35.1,32.0,89,29.58,4.0,SE,8.1,-,N/A,,Overcast,140,2013-02-14 14:54:00
10:15 AM,35.8,32.2,87,29.57,3.0,South,10.4,-,N/A,Rain,Light Rain,170,2013-02-14 15:15:00
10:35 AM,37.6,33.8,86,29.57,5.0,South,9.2,-,N/A,,Overcast,180,2013-02-14 15:35:00
10:54 AM,37.6,33.4,85,29.57,5.0,South,9.2,-,N/A,,Overcast,190,2013-02-14 15:54:00
11:15 AM,37.6,32.9,83,29.57,7.0,SSW,11.5,-,N/A,,Overcast,210,2013-02-14 16:15:00
11:35 AM,37.6,32.4,81,29.57,7.0,SW,13.8,-,N/A,,Overcast,220,2013-02-14 16:35:00
11:54 AM,37.6,32.4,81,29.56,7.0,SW,10.4,-,N/A,,Overcast,220,2013-02-14 16:54:00
12:15 PM,37.6,32.0,80,29.56,7.0,SW,12.7,16.1,N/A,,Overcast,220,2013-02-14 17:15:00
12:35 PM,37.6,32.4,81,29.56,7.0,SW,9.2,-,N/A,,Overcast,230,2013-02-14 17:35:00
12:55 PM,37.6,32.5,82,29.56,10.0,SW,8.1,-,N/A,,Overcast,230,2013-02-14 17:55:00
1:15 PM,37.6,32.9,83,29.56,7.0,WSW,6.9,-,N/A,,Overcast,250,2013-02-14 18:15:00
1:34 PM,36.9,32.4,84,29.56,5.0,WNW,5.8,-,N/A,,Haze,290,2013-02-14 18:34:00
1:55 PM,35.1,31.6,87,29.56,1.2,Calm,Calm,-,0.01,Snow,Light Snow,0,2013-02-14 18:55:00
2:15 PM,35.1,32.0,89,29.56,1.8,Calm,Calm,-,0.01,Rain,Light Rain,0,2013-02-14 19:15:00
2:35 PM,35.1,32.0,89,29.56,2.0,SW,3.5,-,0.01,,Drizzle,230,2013-02-14 19:35:00
2:55 PM,35.1,32.0,89,29.56,1.5,SW,3.5,-,0.01,,Drizzle,220,2013-02-14 19:55:00
3:14 PM,35.1,32.0,89,29.57,1.5,SW,3.5,-,N/A,,Overcast,230,2013-02-14 20:14:00
3:35 PM,35.1,32.2,89,29.57,1.8,WSW,4.6,-,N/A,,Light Drizzle,240,2013-02-14 20:35:00
3:55 PM,35.1,32.2,89,29.59,2.0,North,10.4,-,0.01,Rain,Rain,350,2013-02-14 20:55:00
4:14 PM,35.1,32.0,89,29.61,2.5,North,17.3,26.5,N/A,Rain,Light Rain,360,2013-02-14 21:14:00
4:35 PM,35.1,32.0,89,29.63,1.8,North,13.8,20.7,N/A,Snow,Light Snow,350,2013-02-14 21:35:00
4:55 PM,35.1,32.0,89,29.65,1.8,NNW,15.0,24.2,N/A,Snow,Light Snow,340,2013-02-14 21:55:00
5:15 PM,35.1,32.0,89,29.67,2.0,North,15.0,24.2,N/A,Snow,Light Snow,350,2013-02-14 22:15:00
5:35 PM,35.1,32.0,89,29.69,0.5,NNW,16.1,21.9,N/A,Snow,Snow,340,2013-02-14 22:35:00
5:54 PM,32.5,29.8,90,29.71,0.8,NNW,15.0,27.6,N/A,Snow,Light Snow,330,2013-02-14 22:54:00
6:15 PM,32.5,29.8,90,29.72,0.2,NNW,23.0,28.8,N/A,Snow,Light Snow,340,2013-02-14 23:15:00
6:35 PM,32.5,29.7,89,29.75,1.5,North,16.1,23.0,N/A,Snow,Light Snow,350,2013-02-14 23:35:00
6:54 PM,31.6,28.2,87,29.77,1.2,NNW,19.6,26.5,N/A,Snow,Snow,340,2013-02-14 23:54:00
7:15 PM,30.2,26.6,86,29.79,2.0,NNW,19.6,29.9,N/A,Snow,Light Snow,340,2013-02-15 00:15:00
7:34 PM,30.2,26.6,86,29.81,1.8,NNW,19.6,27.6,N/A,Snow,Light Snow,340,2013-02-15 00:34:00
7:55 PM,30.2,26.6,86,29.83,1.0,NNW,16.1,27.6,N/A,Snow,Snow,340,2013-02-15 00:55:00
8:15 PM,30.2,26.4,86,29.84,1.5,North,20.7,29.9,N/A,Snow,Light Snow,350,2013-02-15 01:15:00
8:34 PM,30.2,26.4,86,29.85,1.5,North,16.1,21.9,N/A,Snow,Light Snow,360,2013-02-15 01:34:00
8:55 PM,30.0,26.1,85,29.86,1.8,North,18.4,23.0,N/A,Snow,Light Snow,360,2013-02-15 01:55:00
9:15 PM,27.9,23.9,85,29.87,2.5,North,12.7,20.7,N/A,Snow,Light Snow,360,2013-02-15 02:15:00
9:34 PM,27.9,23.5,84,29.88,4.0,North,16.1,26.5,N/A,Snow,Light Snow,360,2013-02-15 02:34:00
9:55 PM,27.9,23.4,83,29.89,2.0,North,13.8,21.9,N/A,Snow,Light Snow,360,2013-02-15 02:55:00
10:15 PM,27.9,23.0,82,29.89,4.0,North,13.8,19.6,N/A,Snow,Light Snow,360,2013-02-15 03:15:00
10:35 PM,27.9,23.0,82,29.89,5.0,North,10.4,16.1,N/A,Snow,Light Snow,360,2013-02-15 03:35:00
10:55 PM,26.6,21.4,81,29.90,7.0,North,11.5,17.3,N/A,,Overcast,360,2013-02-15 03:55:00
11:15 PM,27.9,22.6,81,29.90,10.0,North,6.9,-,N/A,,Overcast,360,2013-02-15 04:15:00
11:35 PM,27.9,21.2,76,29.91,10.0,North,8.1,17.3,N/A,,Overcast,360,2013-02-15 04:35:00
11:55 PM,27.9,20.3,73,29.92,10.0,North,8.1,-,N/A,,Overcast,360,2013-02-15 04:55:00